Regional Weather Roundup
Issued by NWS Cleveland, OH

Home | Current Version | Previous Version | Graphics & Text | Print | Product List | Glossary On
Versions: 1 2 3 4 5 6 7 8 9 10 11 12 13 14 15 16 17 18 19 20 21 22 23 24 25 26 27 28 29 30 31 32 33 34 35 36 37 38 39 40 41 42 43 44 45 46 47 48 49 50
000
ASUS41 KCLE 211110
RWRCLE
OHIO REGIONAL WEATHER ROUNDUP
NATIONAL WEATHER SERVICE WILMINGTON, OH
700 AM EDT SAT APR 21 2018

NOTE: "FAIR" INDICATES FEW OR NO CLOUDS BELOW 12,000 FEET WITH NO
SIGNIFICANT WEATHER AND/OR OBSTRUCTIONS TO VISIBILITY.

OHZ001>008-015>018-024>027-034-035-043-044-211200-
   NORTHWEST OHIO

CITY           SKY/WX    TMP DP  RH WIND       PRES   REMARKS
DEFIANCE       FAIR      31  26  82 CALM      30.47R
FINDLAY        FAIR      34  23  64 SE3       30.45R
TOLEDO EXPRESS FAIR      30  27  88 CALM      30.47R
TOLEDO EXEC    FAIR      32  25  75 CALM      30.48R
LIMA           FAIR      34  22  61 SE8       30.44S WCI  27
$$

OHZ009>014-019>023-028>033-038-089-211200-
   NORTHEAST OHIO

CITY           SKY/WX    TMP DP  RH WIND       PRES   REMARKS
CLE-HOPKINS    FAIR      30  23  75 CALM      30.50R
CLE-LAKEFRONT  FAIR      32  22  66 SE6       30.48R WCI  26
CUY CO. ARPT   PTCLDY    27  23  86 E5        30.48  WCI  21
LORAIN-ELYRIA  FAIR      28  22  78 CALM      30.48R
ASHTABULA      FAIR      26  24  92 CALM      30.48R
AKRON-CANTON   FAIR      30  20  66 CALM      30.46S
WOOSTER        FAIR      26  22  84 CALM      30.47R
MANSFIELD      FAIR      30  23  75 SE3       30.45S
YOUNGSTOWN     FAIR      27  20  75 CALM      30.46R
$$

OHZ042-051>053-060>062-070>072-077>081-211200-
  SOUTHWEST OHIO

CITY           SKY/WX    TMP DP  RH WIND       PRES   REMARKS
CINC-COVINGTON FAIR      41  24  51 E9        30.41R
CINC-LUNKEN    FAIR      35  34  96 CALM      30.44S
HAMILTON       FAIR      33  26  75 NE3       30.45R
DAYTON         FAIR      37  24  59 E8        30.45R
WRIGHT-PAT AFB FAIR      36  23  58 NE6       30.45R
DAYTON GENERAL FAIR      39  23  52 E8        30.43R
WILMINGTON       N/A     35  25  66 E7        30.43S WCI  29
$$

OHZ036-037-039>041-045>050-054>059-063>069-073>076-082>088-211200-
  CENTRAL AND SOUTHEAST OHIO

CITY           SKY/WX    TMP DP  RH WIND       PRES   REMARKS
COLUMBUS       FAIR      31  24  75 N3        30.46R
OSU AIRPORT    FAIR      32  21  64 N3        30.46R
BOLTON FIELD   FAIR      32  25  74 CALM      30.46S
RICKENBACK AFB FAIR      33  23  67 N5        30.46R WCI  29
NEWARK         FAIR      27  24  89 CALM      30.46R
MARION         FAIR      25  22  88 S3        30.46S
LANCASTER      FAIR      29  26  89 CALM      30.46R
ZANESVILLE     NOT AVBL
NEW PHILLY     FAIR      27  23  85 CALM      30.48R
$$



USA.gov is the U.S. government's official web portal to all federal, state and local government web resources and services.